Weather History for Florence, SC

Change the Weather History Date:

Friday, December 6, 2013

  Actual Average Record
Temperature  
Mean Temperature 73 °F 49 °F  
Max Temperature 81 °F 60 °F 81 °F (1998)
Min Temperature 65 °F 38 °F 23 °F (1987)
Degree Days  
Heating Degree Days 0 16  
Month to date heating degree days 44 92  
Since 1 July heating degree days 514 514  
Cooling Degree Days 8 0  
Month to date cooling degree days 8 0  
Year to date cooling degree days 2054 2059  
Growing Degree Days 22 (Base 50)    
Moisture  
Dew Point 63 °F    
Average Humidity 74    
Maximum Humidity 93    
Minimum Humidity 54    
Precipitation  
Precipitation 0.00 in 0.09 in 0.85 in (1983)
Month to date precipitation 0.51 0.54  
Year to date precipitation 50.85 40.44  
Sea Level Pressure  
Sea Level Pressure 30.08 in    
Wind  
Wind Speed 10 mph (SSW)    
Max Wind Speed 21 mph    
Max Gust Speed 25 mph    
Visibility 10 miles    
Events      
T = Trace of Precipitation, MM = Missing Value Source: NWS Daily Summary

Daily Weather History Graph

Daily Weather History Graph

Search for Another Location

Airport:

Trip Planner

Search our weather history database for the weather conditions in past years. The results will help you decide how hot, cold, wet, or windy it might be!

Date:

Astronomy

Dec. 06, 2013 Rise Set
Actual Time 7:10 AM EST 5:09 PM EST
Civil Twilight 6:43 AM EST 5:36 PM EST
Nautical Twilight 6:12 AM EST 6:07 PM EST
Astronomical Twilight 5:41 AM EST 6:38 PM EST
Moon 10:21 AM EST (12/6) 9:31 PM EST (12/6)
Length of Visible Light 10h 53m
Length of Day
9h 58m
Waxing Crescent, 19% of the Moon is Illuminated
Dec 6
Waxing Crescent
Dec 9
First Quarter
Dec 17
Full
Dec 25
Last Quarter
Jan 1
New

Hourly Weather History & Observations

Time (EST) Temp. Heat Index Dew Point Humidity Pressure Visibility Wind Dir Wind Speed Gust Speed Precip Events Conditions
12:53 AM 68.0 °F - 63.0 °F 84% 30.08 in 10.0 mi SSW 6.9 mph - N/A   Scattered Clouds
1:53 AM 68.0 °F - 63.0 °F 84% 30.07 in 10.0 mi SSW 5.8 mph - N/A   Partly Cloudy
2:53 AM 66.9 °F - 63.0 °F 87% 30.08 in 10.0 mi SSW 8.1 mph - N/A   Partly Cloudy
3:53 AM 66.9 °F - 62.1 °F 84% 30.07 in 10.0 mi SSW 6.9 mph - N/A   Clear
4:53 AM 66.0 °F - 62.1 °F 87% 30.07 in 10.0 mi SSW 8.1 mph - N/A   Clear
5:53 AM 66.0 °F - 62.1 °F 87% 30.08 in 10.0 mi SSW 9.2 mph - N/A   Clear
6:53 AM 64.9 °F - 62.1 °F 90% 30.10 in 10.0 mi SSW 6.9 mph - N/A   Clear
7:53 AM 64.9 °F - 62.1 °F 90% 30.11 in 10.0 mi SSW 8.1 mph - N/A   Clear
8:53 AM 69.1 °F - 63.0 °F 81% 30.12 in 10.0 mi SSW 10.4 mph 17.3 mph N/A   Clear
9:53 AM 73.0 °F - 63.0 °F 71% 30.14 in 10.0 mi SW 11.5 mph 17.3 mph N/A   Clear
10:53 AM 75.9 °F - 64.0 °F 67% 30.14 in 10.0 mi SSW 16.1 mph - N/A   Partly Cloudy
11:53 AM 78.1 °F - 64.0 °F 62% 30.11 in 10.0 mi SSW 15.0 mph - N/A   Scattered Clouds
12:53 PM 80.1 °F 81.5 °F 63.0 °F 56% 30.08 in 10.0 mi SW 15.0 mph - N/A   Clear
1:53 PM 81.0 °F 81.9 °F 62.1 °F 52% 30.05 in 10.0 mi SSW 16.1 mph - N/A   Clear
2:53 PM 80.1 °F 81.2 °F 62.1 °F 54% 30.03 in 10.0 mi SSW 15.0 mph 21.9 mph N/A   Clear
3:53 PM 79.0 °F - 64.0 °F 60% 30.03 in 10.0 mi South 8.1 mph - N/A   Partly Cloudy
4:53 PM 75.9 °F - 64.0 °F 67% 30.04 in 10.0 mi SSW 9.2 mph - N/A   Scattered Clouds
5:53 PM 73.9 °F - 63.0 °F 68% 30.05 in 10.0 mi SSW 8.1 mph - N/A   Clear
6:53 PM 73.0 °F - 64.0 °F 73% 30.06 in 10.0 mi South 9.2 mph - N/A   Clear
7:53 PM 71.1 °F - 64.0 °F 78% 30.05 in 10.0 mi South 9.2 mph - N/A   Clear
8:53 PM 71.1 °F - 64.0 °F 78% 30.06 in 10.0 mi SSW 10.4 mph - N/A   Clear
9:53 PM 69.1 °F - 64.0 °F 84% 30.06 in 10.0 mi South 8.1 mph - N/A   Clear
10:53 PM 69.1 °F - 64.0 °F 84% 30.06 in 10.0 mi SSW 6.9 mph - N/A   Clear
11:53 PM 68.0 °F - 64.0 °F 87% 30.07 in 10.0 mi SSW 8.1 mph - N/A   Clear